Regional Weather Roundup
Issued by NWS

Home | Current Version | Previous Version | Graphics & Text | Print | Product List | Glossary On
Versions: 1 2 3 4 5 6 7 8 9 10 11 12 13 14 15 16 17 18 19 20 21 22 23 24 25 26 27 28 29 30 31 32 33 34 35 36 37 38 39 40 41 42 43 44 45 46 47 48 49 50
000
ASUS43 KMKX 061400
RWRWI

WISCONSIN REGIONAL WEATHER ROUNDUP
NATIONAL WEATHER SERVICE MILWAUKEE/SULLIVAN WI
900 AM CDT WED MAY 06 2015

NOTE: "FAIR" INDICATES FEW OR NO CLOUDS BELOW 12,000 FEET WITH NO
SIGNIFICANT WEATHER AND/OR OBSTRUCTIONS TO VISIBILITY.

WIZ001-002-006>008-014>016-023>028-061500-
NORTHWEST WISCONSIN

CITY           SKY/WX    TMP DP  RH WIND       PRES   REMARKS
SUPERIOR ARPT  CLOUDY    43  39  86 NE5       30.12F
ASHLAND        LGT RAIN  53  48  83 CALM      30.15S
HAYWARD        CLOUDY    54  48  80 SE8       30.13F
SIREN          CLOUDY    55  51  87 SE12      30.10F
CUMBERLAND     CLOUDY    52  50  93 SE12      30.12F
RICE LAKE      CLOUDY    53  49  88 SE10      30.14F
CHETEK         CLOUDY    52  50  93 E8G18     30.13S
LADYSMITH      LGT RAIN  51  49  92 E7        30.17S
EAU CLAIRE     CLOUDY    54  51  90 SE8       30.12F
MENOMONIE      CLOUDY    55  52  92 SE10      30.13S FOG
NEW RICHMOND   CLOUDY    54  54  99 SE8       30.11S FOG
OSCEOLA        RAIN      55  55 100 SE10      30.12F
$$

WIZ003>005-009-010-017-018-061500-
NORTH CENTRAL WISCONSIN

CITY           SKY/WX    TMP DP  RH WIND       PRES   REMARKS
MANITOWISH WTR CLOUDY    49  40  70 SE8       30.20R
ARBOR VITAE    CLOUDY    49  43  79 SE6       30.20S
WOODRUFF       CLOUDY    49  43  79 SE6       30.20S
RHINELANDER    CLOUDY    49  41  74 SE7       30.21S
EAGLE RIVER    CLOUDY    53  30  41 S6        30.20F
LAND O LAKES   CLOUDY    56  28  33 S7G16     30.21F
PHILLIPS       CLOUDY    48  46  93 E6        30.17R
TOMAHAWK       CLOUDY    46  44  93 CALM      30.20S
MEDFORD        RAIN      46  45  93 SE3       30.18R
MERRILL        HVY RAIN  46  46  99 SE3       30.21S
$$

WIZ029-030-035-036-043>047-061500-
CENTRAL WISCONSIN

CITY           SKY/WX    TMP DP  RH WIND       PRES   REMARKS
WAUSAU         LGT RAIN  49  46  90 E10       30.18F
MOSINEE        CLOUDY    48  46  93 E5        30.20S
MARSHFIELD     CLOUDY    55  46  71 SE12      30.17F
STEVENS POINT  CLOUDY    48  44  85 E6        30.20S
WAUPACA        CLOUDY    56  45  66 E5        30.21S
WAUTOMA        NOT AVBL
WISC RAPIDS    CLOUDY    55  45  68 SE7       30.19F
CAMP DOUGLAS   CLOUDY    52  52 100 E9        30.15F FOG
$$

WIZ011>013-019>022-031-037>040-048>050-061500-
NORTHEAST WISCONSIN

CITY           SKY/WX    TMP DP  RH WIND       PRES   REMARKS
ANTIGO         DRIZZLE   46  43  91 SE8       30.21F
SHAWANO        DRIZZLE   51  47  86 E3        30.23S
OCONTO         CLOUDY    53  43  66 S5        30.23S
STURGEON BAY   CLOUDY    54  39  58 E8        30.26F
GREEN BAY      CLOUDY    53  47  79 E5        30.22F
MANITOWOC      CLOUDY    50  45  81 SE6       30.24S
APPLETON       PTSUNNY   54  45  71 E6        30.21F
CLINTONVILLE   CLOUDY    46  45  93 E7        30.21F
OSHKOSH        PTSUNNY   54  48  80 SE6       30.20F
$$

WIZ032>034-041-042-053>061-061500-
SOUTHWEST WISCONSIN

CITY           SKY/WX    TMP DP  RH WIND       PRES   REMARKS
LA CROSSE      CLOUDY    59  55  87 SE5       30.12F FOG
SPARTA         CLOUDY    55  53  92 SE6       30.15F FOG
VIROQUA        CLOUDY    53  53 100 SE6       30.14S VSB 1/4
BOSCOBEL       CLOUDY    57  54  89 NE5       30.14F FOG
PRAIRIE DU CHI CLOUDY    55  53  91 E8        30.13F FOG
PLATTEVILLE    CLOUDY    53  53  98 SE10      30.15S
$$

WIZ056-057-062-063-064-067-068-061500-
SOUTH CENTRAL WISCONSIN

CITY           SKY/WX    TMP DP  RH WIND       PRES   REMARKS
REEDSBURG      CLOUDY    52  51  97 NE5       30.16F FOG
BARABOO/DELLS  NOT AVBL
LONE ROCK      NOT AVBL
MINERAL POINT  FOG       54  52  94 SE9       30.15S VSB 3/4
MADISON        CLOUDY    53  50  89 S3        30.18S FOG
MIDDLETON      CLOUDY    53  53 100 E6        30.19R
WATERTOWN      CLOUDY    52  52 100 SE5       30.19S FOG
MONROE         FOG       52  52 100 E6        30.17R VSB<1/4
JANESVILLE       N/A     54  52  94 SE6       30.18S FOG
$$

WIZ051-052-058>065-066-070>072-061500-
SOUTHEAST WISCONSIN

CITY           SKY/WX    TMP DP  RH WIND       PRES   REMARKS
MILWAUKEE      FOG       48  46  93 NE3       30.21F VSB 1
WAUKESHA       NOT AVBL
MILWAUKEE/TIMM FOG       48  46  93 E6        30.22S VSB 1/4
RACINE         FOG       49  48  97 CALM      30.22F VSB 1/2
BURLINGTON     FOG       49  49 100 E3        30.19F VSB 1/2
KENOSHA        FOG       51  50  96 E3        30.20F VSB 1/4
FOND DU LAC    CLOUDY    54  50  86 E7        30.20F
SHEBOYGAN      FOG       50  49  96 SE6       30.23S VSB<1/4
WEST BEND      FOG       48  46  93 E6        30.21S VSB 3/4
JUNEAU         CLOUDY    52  50  94 E6        30.21S FOG
$$

LSZ147-162-061500-
LAKE SUPERIOR

STATION/POSITION TIME  TEMP    WIND        PRES    WAVE
                       AIR SEA DIR/SP/G            HT/PER
                 (UTC) (F)     (DEG/KT/KT) (MB)    (FT/S)
W MID LAKE BUOY  1250   40 35   80/  8/ 10 1022.9R   1
DEVILS ISLAND    1300   49     110/  7/  7 1021.7R
PORT WING        1300   43      60/  3/  6 1020.7
SAXON HARBOR     1300   59     200/  5/  9 1020.7S
$$

LMZ867-665-643>646-061500-
LAKE MICHIGAN

STATION/POSITION TIME  TEMP    WIND        PRES    WAVE
                       AIR SEA DIR/SP/G            HT/PER
                 (UTC) (F)     (DEG/KT/KT) (MB)    (FT/S)
CHAMBERS ISLAND  1300   51      70/  2/  4 1024.0S
NORTHPORT PIER   1300   43     100/  6/  6 1024.0S
SISTER BAY       1317   56        CALM       N/A
KEWAUNEE LAKESHO 1300   45      60/  3/  6 1023.1R
SHEBOYGAN LAKESH 1300   44      30/  3/  4 1024.4R
PORT WASHINGTON  1300   45      40/  2/  4 1024.0R
ATWATER BUOY     1300   43      20/  6/  6 1024.1R
MILWAUKEE LAKESH 1300   44      50/  6/  7   N/A
KENOSHA   LAKESH 1300   44      20/  3/  3 1023.0R
$$

TC  - TEMPERATURE IN CELSIUS
VSB - VISIBILITY IN STATUTE MILES
WCI - WIND CHILL INDEX
HX  - HEAT INDEX




USA.gov is the U.S. government's official web portal to all federal, state and local government web resources and services.